Find Starlink 37210

NORAD ID: 68557 Int'l Des: 2026-070 Owner: SPXS Country: US Constellation: starlink operational
LEOCIRCULAR

Live Position

Loading 3D Globe...

About Starlink 37210

Description loading...

Upcoming Passes

Passes for default location (London). Set your location on the main map for personalized predictions.

Altitude History

Loading altitude history...

Two-Line Element Set

1 68557U 26070R 26132.21186999 .00045269 00000-0 81613-3 0 9993
2 68557 53.1596 67.9997 0001063 94.2225 265.8905 15.49349029 6279
Epoch: May 12, 2026 • Age: 10 hours

Current Status

Altitude 437.7 km
Velocity 7.65 km/s
Sub-Earth Point -53.17°S, 121.96°W
Launch Date Apr 2, 2026
Age 0.1 years
Type internet

Technical Details

Classification Payload
Mass 575.00 kg
Dry Mass 530.00 kg
Total Mass 575.00 kg
Length 0.30 m
Diameter 4.10 m
Span 29.00 m
Shape Box + pan
Manufacturer SPXS
Bus Type Starlink V2MO
Phase Status In Orbit
Owner/State SPXS/US

Most Searched